,,Stat6,,Stat2,,Stat8,,Stat9,,Stat10,,Wind1,,Wind1,
time,status,PA1M_AVG,status,PR1M_SUM,status,RH1M_AVG,status,SR1M_AVG,status,TA1M_AVG,status,W1dAve1m,status,W1sAve1m,
2009-08-05, 00:00:01,VALID,917.386,VALID,0,VALID,100,VALID,-0.0339617,VALID,20.2362,VALID,2,VALID,0,
2009-08-05, 00:01:00,VALID,917.389,VALID,0,VALID,100,VALID,-0.0679233,VALID,20.2203,VALID,2,VALID,0,
2009-08-05, 00:02:00,VALID,917.385,VALID,0,VALID,100,VALID,0,VALID,20.194,VALID,2,VALID,0,
2009-08-05, 00:03:00,VALID,917.382,VALID,0,VALID,100,VALID,-0.0169808,VALID,20.1616,VALID,2,VALID,0,
2009-08-05, 00:04:00,VALID,917.378,VALID,0,VALID,100,VALID,-0.0509425,VALID,20.1554,VALID,2,VALID,0,
2009-08-05, 00:05:01,VALID,917.37,VALID,0,VALID,100,VALID,-0.0169808,VALID,20.1583,VALID,2,VALID,0,
2009-08-05, 00:06:00,VALID,917.363,VALID,0,VALID,100,VALID,-0.0169808,VALID,20.1354,VALID,2,VALID,0,
2009-08-05, 00:07:00,VALID,917.364,VALID,0,VALID,100,VALID,-0.0339617,VALID,20.1227,VALID,2,VALID,0,
2009-08-05, 00:08:01,VALID,917.352,VALID,0,VALID,100,VALID,-0.0169808,VALID,20.1064,VALID,2,VALID,0,
2009-08-05, 00:09:00,VALID,917.317,VALID,0,VALID,100,VALID,0.0169808,VALID,20.1034,VALID,2,VALID,0,
2009-08-05, 00:10:00,VALID,917.306,VALID,0,VALID,100,VALID,-0.0509425,VALID,20.0902,VALID,1,VALID,0,
2009-08-05, 00:11:01,VALID,917.286,VALID,0,VALID,100,VALID,0,VALID,20.0807,VALID,1,VALID,0,
2009-08-05, 00:12:00,VALID,917.266,VALID,0,VALID,100,VALID,-0.0339617,VALID,20.0675,VALID,1,VALID,0,
2009-08-05, 00:13:00,VALID,917.228,VALID,0,VALID,100,VALID,-0.0509425,VALID,20.051,VALID,10,VALID,0,
2009-08-05, 00:14:00,VALID,917.209,VALID,0,VALID,100,VALID,-0.0339617,VALID,20.0318,VALID,19,VALID,0,
2009-08-05, 00:15:00,VALID,917.209,VALID,0,VALID,100,VALID,-0.0169808,VALID,20.0123,VALID,19,VALID,0,
2009-08-05, 00:16:00,VALID,917.218,VALID,0,VALID,100,VALID,-0.0169808,VALID,19.9826,VALID,19,VALID,0,
2009-08-05, 00:17:00,VALID,917.24,VALID,0,VALID,100,VALID,-0.0169808,VALID,19.9666,VALID,19,VALID,0,
2009-08-05, 00:18:01,VALID,917.256,VALID,0,VALID,100,VALID,-0.0679233,VALID,19.9636,VALID,19,VALID,0,
2009-08-05, 00:19:01,VALID,917.254,VALID,0,VALID,100,VALID,-0.0509425,VALID,19.9571,VALID,19,VALID,0,
2009-08-05, 00:20:00,VALID,917.257,VALID,0,VALID,100,VALID,-0.0339617,VALID,19.9504,VALID,19,VALID,0,
2009-08-05, 00:21:00,VALID,917.243,VALID,0,VALID,100,VALID,-0.0169808,VALID,19.918,VALID,19,VALID,0,
2009-08-05, 00:22:00,VALID,917.247,VALID,0,VALID,100,VALID,-0.0339617,VALID,19.902,VALID,19,VALID,0,
2009-08-05, 00:23:00,VALID,917.228,VALID,0,VALID,100,VALID,0,VALID,19.879,VALID,19,VALID,0,
2009-08-05, 00:24:00,VALID,917.22,VALID,0,VALID,100,VALID,-0.0339617,VALID,19.8625,VALID,19,VALID,0,
2009-08-05, 00:25:00,VALID,917.203,VALID,0,VALID,100,VALID,-0.0169808,VALID,19.8598,VALID,19,VALID,0,
2009-08-05, 00:26:01,VALID,917.202,VALID,0,VALID,100,VALID,-0.0339617,VALID,19.8471,VALID,19,VALID,0,
2009-08-05, 00:27:01,VALID,917.171,VALID,0,VALID,100,VALID,-0.0509425,VALID,19.8371,VALID,19,VALID,0,
2009-08-05, 00:28:00,VALID,917.152,VALID,0,VALID,100,VALID,-0.0169808,VALID,19.8533,VALID,38,VALID,0,
2009-08-05, 00:29:00,VALID,917.14,VALID,0,VALID,100,VALID,0,VALID,19.8461,VALID,44,VALID,0,
2009-08-05, 00:30:01,VALID,917.119,VALID,0,VALID,100,VALID,0,VALID,19.8496,VALID,44,VALID,0,
2009-08-05, 00:31:01,VALID,917.099,VALID,0,VALID,100,VALID,0,VALID,19.8563,VALID,44,VALID,0,
2009-08-05, 00:32:00,VALID,917.084,VALID,0,VALID,100,VALID,-0.0169808,VALID,19.8531,VALID,44,VALID,0,
2009-08-05, 00:33:01,VALID,917.083,VALID,0,VALID,100,VALID,-0.0169808,VALID,19.8466,VALID,44,VALID,0,
2009-08-05, 00:34:01,VALID,917.094,VALID,0,VALID,100,VALID,-0.0169808,VALID,19.8468,VALID,44,VALID,0,
2009-08-05, 00:35:01,VALID,917.09,VALID,0,VALID,100,VALID,0,VALID,19.8401,VALID,44,VALID,0,
2009-08-05, 00:36:01,VALID,917.081,VALID,0,VALID,100,VALID,0,VALID,19.8366,VALID,66,VALID,0,
2009-08-05, 00:37:01,VALID,917.076,VALID,0,VALID,100,VALID,-0.0169808,VALID,19.8166,VALID,82,VALID,0,
2009-08-05, 00:38:01,VALID,917.037,VALID,0,VALID,100,VALID,0,VALID,19.8041,VALID,82,VALID,0,
2009-08-05, 00:39:01,VALID,916.996,VALID,0,VALID,100,VALID,-0.0169808,VALID,19.7168,VALID,82,VALID,0,
2009-08-05, 00:40:00,VALID,916.963,VALID,0,VALID,100,VALID,0,VALID,19.6119,VALID,82,VALID,0,
2009-08-05, 00:41:00,VALID,916.951,VALID,0,VALID,100,VALID,0,VALID,19.5897,VALID,82,VALID,0,
2009-08-05, 00:42:00,VALID,916.954,VALID,0,VALID,100,VALID,-0.0679233,VALID,19.5738,VALID,82,VALID,0,
2009-08-05, 00:43:00,VALID,916.94,VALID,0,VALID,100,VALID,-0.101885,VALID,19.5715,VALID,82,VALID,0,
2009-08-05, 00:44:00,VALID,916.927,VALID,0,VALID,100,VALID,-0.101885,VALID,19.559,VALID,82,VALID,0,
2009-08-05, 00:45:00,VALID,916.928,VALID,0,VALID,100,VALID,-0.135847,VALID,19.5398,VALID,82,VALID,0,
2009-08-05, 00:46:00,VALID,916.947,VALID,0,VALID,100,VALID,-0.101885,VALID,19.4677,VALID,82,VALID,0,
2009-08-05, 00:47:00,VALID,916.957,VALID,0,VALID,100,VALID,-0.101885,VALID,19.4282,VALID,82,VALID,0,
2009-08-05, 00:48:00,VALID,916.959,VALID,0,VALID,100,VALID,-0.0849042,VALID,19.4317,VALID,82,VALID,0,
2009-08-05, 00:49:00,VALID,916.956,VALID,0,VALID,100,VALID,-0.0679233,VALID,19.4347,VALID,82,VALID,0,
2009-08-05, 00:50:00,VALID,916.971,VALID,0,VALID,100,VALID,-0.0849042,VALID,19.4737,VALID,82,VALID,0,
2009-08-05, 00:51:00,VALID,916.968,VALID,0,VALID,100,VALID,-0.101885,VALID,19.4966,VALID,82,VALID,0,
2009-08-05, 00:52:00,VALID,916.967,VALID,0,VALID,100,VALID,-0.101885,VALID,19.4811,VALID,82,VALID,0,
2009-08-05, 00:53:00,VALID,916.966,VALID,0,VALID,100,VALID,-0.101885,VALID,19.4807,VALID,82,VALID,0,
2009-08-05, 00:54:00,VALID,916.955,VALID,0,VALID,100,VALID,-0.0679233,VALID,19.4869,VALID,82,VALID,0,
2009-08-05, 00:55:00,VALID,916.961,VALID,0,VALID,100,VALID,-0.0679233,VALID,19.4447,VALID,82,VALID,0,
2009-08-05, 00:56:00,VALID,916.972,VALID,0,VALID,100,VALID,-0.0849042,VALID,19.4153,VALID,82,VALID,0,
2009-08-05, 00:57:00,VALID,916.984,VALID,0,VALID,100,VALID,-0.101885,VALID,19.4095,VALID,82,VALID,0,
2009-08-05, 00:58:00,VALID,917.011,VALID,0,VALID,100,VALID,-0.0849042,VALID,19.3701,VALID,82,VALID,0,
2009-08-05, 00:59:00,VALID,917.035,VALID,0,VALID,100,VALID,-0.0849042,VALID,19.3703,VALID,82,VALID,0,
2009-08-05, 01:00:00,VALID,917.033,VALID,0,VALID,100,VALID,-0.0849042,VALID,19.3798,VALID,82,VALID,0,
2009-08-05, 01:01:00,VALID,917.034,VALID,0,VALID,100,VALID,-0.0679233,VALID,19.3766,VALID,82,VALID,0,
2009-08-05, 01:02:00,VALID,917.034,VALID,0,VALID,100,VALID,-0.101885,VALID,19.3604,VALID,82,VALID,0,
2009-08-05, 01:03:00,VALID,917.002,VALID,0,VALID,100,VALID,-0.101885,VALID,19.3636,VALID,82,VALID,0,
2009-08-05, 01:04:00,VALID,917.003,VALID,0,VALID,100,VALID,-0.0849042,VALID,19.393,VALID,82,VALID,0,
2009-08-05, 01:05:00,VALID,916.99,VALID,0,VALID,100,VALID,-0.101885,VALID,19.412,VALID,82,VALID,0,
2009-08-05, 01:06:00,VALID,916.993,VALID,0,VALID,100,VALID,-0.0679233,VALID,19.4185,VALID,82,VALID,0,
2009-08-05, 01:07:00,VALID,916.997,VALID,0,VALID,100,VALID,-0.101885,VALID,19.451,VALID,82,VALID,0,
2009-08-05, 01:08:00,VALID,916.98,VALID,0,VALID,100,VALID,-0.101885,VALID,19.3993,VALID,82,VALID,0,
2009-08-05, 01:09:00,VALID,916.958,VALID,0,VALID,100,VALID,-0.0679233,VALID,19.3312,VALID,82,VALID,0,
2009-08-05, 01:10:00,VALID,916.94,VALID,0,VALID,100,VALID,-0.101885,VALID,19.2303,VALID,82,VALID,0,
2009-08-05, 01:11:00,VALID,916.925,VALID,0,VALID,100,VALID,-0.101885,VALID,19.1627,VALID,82,VALID,0,
2009-08-05, 01:12:00,VALID,916.922,VALID,0,VALID,100,VALID,-0.0169808,VALID,19.1323,VALID,82,VALID,0,
2009-08-05, 01:13:00,VALID,916.912,VALID,0,VALID,100,VALID,-0.0169808,VALID,19.1195,VALID,82,VALID,0,
2009-08-05, 01:14:00,VALID,916.925,VALID,0,VALID,100,VALID,-0.101885,VALID,19.0946,VALID,82,VALID,0,
2009-08-05, 01:15:00,VALID,916.933,VALID,0,VALID,100,VALID,-0.101885,VALID,19.0786,VALID,82,VALID,0,
2009-08-05, 01:16:00,VALID,916.941,VALID,0,VALID,100,VALID,-0.0509425,VALID,19.0521,VALID,82,VALID,0,
2009-08-05, 01:17:00,VALID,916.934,VALID,0,VALID,100,VALID,-0.0849042,VALID,19.0232,VALID,82,VALID,0,
2009-08-05, 01:18:00,VALID,916.913,VALID,0,VALID,100,VALID,-0.0679233,VALID,18.965,VALID,82,VALID,0,
2009-08-05, 01:19:00,VALID,916.898,VALID,0,VALID,100,VALID,-0.101885,VALID,18.8834,VALID,82,VALID,0,
2009-08-05, 01:20:00,VALID,916.887,VALID,0,VALID,100,VALID,-0.0509425,VALID,18.8248,VALID,82,VALID,0,
2009-08-05, 01:21:00,VALID,916.887,VALID,0,VALID,100,VALID,-0.0679233,VALID,18.9191,VALID,93,VALID,0.021984,
2009-08-05, 01:22:00,VALID,916.882,VALID,0,VALID,100,VALID,-0.0849042,VALID,18.9942,VALID,99,VALID,0.0363372,
2009-08-05, 01:23:00,VALID,916.88,VALID,0,VALID,100,VALID,-0.101885,VALID,19.0005,VALID,99,VALID,0,
2009-08-05, 01:24:00,VALID,916.859,VALID,0,VALID,100,VALID,-0.0849042,VALID,19,VALID,99,VALID,0,
2009-08-05, 01:25:00,VALID,916.85,VALID,0,VALID,100,VALID,-0.0679233,VALID,18.9708,VALID,99,VALID,0,
2009-08-05, 01:26:00,VALID,916.826,VALID,0,VALID,100,VALID,-0.0339617,VALID,18.9611,VALID,99,VALID,0,
2009-08-05, 01:27:00,VALID,916.818,VALID,0,VALID,100,VALID,-0.0169808,VALID,18.9569,VALID,99,VALID,0,
2009-08-05, 01:28:00,VALID,916.806,VALID,0,VALID,100,VALID,0.0339617,VALID,18.9175,VALID,100,VALID,0,
2009-08-05, 01:29:00,VALID,916.783,VALID,0,VALID,100,VALID,0.0169808,VALID,18.9082,VALID,100,VALID,0,
2009-08-05, 01:30:00,VALID,916.787,VALID,0,VALID,100,VALID,0,VALID,18.8855,VALID,100,VALID,0,
2009-08-05, 01:31:00,VALID,916.777,VALID,0,VALID,100,VALID,0,VALID,18.7717,VALID,100,VALID,0,
2009-08-05, 01:32:00,VALID,916.77,VALID,0,VALID,100,VALID,0,VALID,18.6128,VALID,100,VALID,0,
2009-08-05, 01:33:00,VALID,916.764,VALID,0,VALID,100,VALID,0.0169808,VALID,18.6709,VALID,100,VALID,0,
2009-08-05, 01:34:00,VALID,916.768,VALID,0,VALID,100,VALID,0,VALID,18.7977,VALID,100,VALID,0,
2009-08-05, 01:35:00,VALID,916.772,VALID,0,VALID,100,VALID,-0.0169808,VALID,18.8563,VALID,100,VALID,0,
2009-08-05, 01:36:00,VALID,916.787,VALID,0,VALID,100,VALID,0,VALID,18.8656,VALID,100,VALID,0,
2009-08-05, 01:37:00,VALID,916.799,VALID,0,VALID,100,VALID,0.0509425,VALID,18.8753,VALID,100,VALID,0,
2009-08-05, 01:38:00,VALID,916.795,VALID,0,VALID,100,VALID,0.0169808,VALID,18.7525,VALID,100,VALID,0,
2009-08-05, 01:39:00,VALID,916.782,VALID,0,VALID,100,VALID,0.0169808,VALID,18.5769,VALID,100,VALID,0,
2009-08-05, 01:40:00,VALID,916.756,VALID,0,VALID,100,VALID,0.0169808,VALID,18.5544,VALID,100,VALID,0,
2009-08-05, 01:41:00,VALID,916.77,VALID,0,VALID,100,VALID,0.0169808,VALID,18.5345,VALID,100,VALID,0,
2009-08-05, 01:42:00,VALID,916.786,VALID,0,VALID,100,VALID,0.0679233,VALID,18.6255,VALID,100,VALID,0,
2009-08-05, 01:43:00,VALID,916.803,VALID,0,VALID,100,VALID,0.0169808,VALID,18.6774,VALID,101,VALID,0,
2009-08-05, 01:44:00,VALID,916.822,VALID,0,VALID,100,VALID,0,VALID,18.7261,VALID,109,VALID,0,
2009-08-05, 01:45:00,VALID,916.807,VALID,0,VALID,100,VALID,0.0339617,VALID,18.8169,VALID,114,VALID,0,
2009-08-05, 01:46:00,VALID,916.787,VALID,0,VALID,100,VALID,0.0509425,VALID,18.8656,VALID,107,VALID,0,
2009-08-05, 01:47:00,VALID,916.762,VALID,0,VALID,100,VALID,0.0169808,VALID,18.8526,VALID,94,VALID,0.00093006,
2009-08-05, 01:48:00,VALID,916.758,VALID,0,VALID,100,VALID,0.0339617,VALID,18.8496,VALID,90,VALID,0.046317,
2009-08-05, 01:49:00,VALID,916.775,VALID,0,VALID,100,VALID,0,VALID,18.8431,VALID,85,VALID,0,
2009-08-05, 01:50:00,VALID,916.787,VALID,0,VALID,100,VALID,0,VALID,18.8234,VALID,84,VALID,0.0356889,
2009-08-05, 01:51:00,VALID,916.823,VALID,0,VALID,100,VALID,0.0169808,VALID,18.7879,VALID,84,VALID,0,
2009-08-05, 01:52:00,VALID,916.84,VALID,0,VALID,100,VALID,0.0339617,VALID,18.7815,VALID,84,VALID,0,
2009-08-05, 01:53:00,VALID,916.852,VALID,0,VALID,100,VALID,0,VALID,18.7942,VALID,84,VALID,0,
2009-08-05, 01:54:00,VALID,916.834,VALID,0,VALID,100,VALID,0.0169808,VALID,18.7872,VALID,84,VALID,0,
2009-08-05, 01:55:00,VALID,916.814,VALID,0,VALID,100,VALID,0.0169808,VALID,18.778,VALID,84,VALID,0,
2009-08-05, 01:56:00,VALID,916.817,VALID,0,VALID,100,VALID,0.0169808,VALID,18.768,VALID,84,VALID,0,
2009-08-05, 01:57:00,VALID,916.812,VALID,0,VALID,100,VALID,0,VALID,18.743,VALID,84,VALID,0,
2009-08-05, 01:58:00,VALID,916.804,VALID,0,VALID,100,VALID,-0.0339617,VALID,18.6367,VALID,84,VALID,0,
2009-08-05, 01:59:00,VALID,916.799,VALID,0,VALID,100,VALID,-0.0849042,VALID,18.5067,VALID,84,VALID,0,
2009-08-05, 02:00:00,VALID,916.796,VALID,0,VALID,100,VALID,-0.0169808,VALID,18.5421,VALID,125,VALID,0,
2009-08-05, 02:01:00,VALID,916.779,VALID,0,VALID,100,VALID,-0.0509425,VALID,18.5716,VALID,187,VALID,0,
2009-08-05, 02:02:00,VALID,916.755,VALID,0,VALID,100,VALID,-0.0679233,VALID,18.614,VALID,187,VALID,0,
2009-08-05, 02:03:00,VALID,916.746,VALID,0,VALID,100,VALID,-0.0679233,VALID,18.6981,VALID,187,VALID,0,
2009-08-05, 02:04:00,VALID,916.712,VALID,0,VALID,100,VALID,-0.0679233,VALID,18.747,VALID,186,VALID,0,
2009-08-05, 02:05:00,VALID,916.685,VALID,0,VALID,100,VALID,-0.0509425,VALID,18.747,VALID,186,VALID,0,
2009-08-05, 02:06:00,VALID,916.669,VALID,0,VALID,100,VALID,-0.101885,VALID,18.7337,VALID,186,VALID,0,
2009-08-05, 02:07:00,VALID,916.663,VALID,0,VALID,100,VALID,-0.0509425,VALID,18.7337,VALID,186,VALID,0,
2009-08-05, 02:08:00,VALID,916.652,VALID,0,VALID,100,VALID,-0.0679233,VALID,18.6394,VALID,186,VALID,0,
2009-08-05, 02:09:00,VALID,916.647,VALID,0,VALID,100,VALID,-0.0679233,VALID,18.5523,VALID,186,VALID,0,
2009-08-05, 02:10:00,VALID,916.629,VALID,0,VALID,100,VALID,-0.0679233,VALID,18.5004,VALID,186,VALID,0,
2009-08-05, 02:11:00,VALID,916.616,VALID,0,VALID,100,VALID,-0.0849042,VALID,18.4323,VALID,186,VALID,0,
2009-08-05, 02:12:00,VALID,916.607,VALID,0,VALID,100,VALID,0,VALID,18.3989,VALID,186,VALID,0,
2009-08-05, 02:13:00,VALID,916.594,VALID,0,VALID,100,VALID,0.0339617,VALID,18.3693,VALID,186,VALID,0,
2009-08-05, 02:14:00,VALID,916.605,VALID,0,VALID,100,VALID,0.0169808,VALID,18.3433,VALID,186,VALID,0,
2009-08-05, 02:15:00,VALID,916.611,VALID,0,VALID,100,VALID,0.0169808,VALID,18.3401,VALID,169,VALID,0,
2009-08-05, 02:16:00,VALID,916.618,VALID,0,VALID,100,VALID,0.0169808,VALID,18.3758,VALID,156,VALID,0.0356658,
2009-08-05, 02:17:00,VALID,916.622,VALID,0,VALID,100,VALID,0.0339617,VALID,18.3788,VALID,171,VALID,0.0777439,
2009-08-05, 02:18:00,VALID,916.625,VALID,0,VALID,100,VALID,0.0169808,VALID,18.3494,VALID,163,VALID,0,
2009-08-05, 02:19:00,VALID,916.637,VALID,0,VALID,100,VALID,0.0509425,VALID,18.3301,VALID,152,VALID,0,
2009-08-05, 02:20:00,VALID,916.637,VALID,0,VALID,100,VALID,0.0169808,VALID,18.2556,VALID,152,VALID,0,
2009-08-05, 02:21:00,VALID,916.647,VALID,0,VALID,100,VALID,0.0509425,VALID,18.168,VALID,131,VALID,0,
2009-08-05, 02:22:00,VALID,916.641,VALID,0,VALID,100,VALID,0.0509425,VALID,18.1777,VALID,88,VALID,0,
2009-08-05, 02:23:00,VALID,916.64,VALID,0,VALID,100,VALID,0.0339617,VALID,18.2359,VALID,81,VALID,0,
2009-08-05, 02:24:00,VALID,916.637,VALID,0,VALID,100,VALID,0.0509425,VALID,18.2715,VALID,80,VALID,0,
2009-08-05, 02:25:00,VALID,916.632,VALID,0,VALID,100,VALID,0.0169808,VALID,18.3271,VALID,80,VALID,0,
2009-08-05, 02:26:00,VALID,916.64,VALID,0,VALID,100,VALID,0,VALID,18.3336,VALID,80,VALID,0,
2009-08-05, 02:27:00,VALID,916.615,VALID,0,VALID,100,VALID,-0.0849042,VALID,18.3116,VALID,80,VALID,0,
2009-08-05, 02:28:00,VALID,916.614,VALID,0,VALID,100,VALID,-0.101885,VALID,18.3445,VALID,80,VALID,0,
2009-08-05, 02:29:00,VALID,916.618,VALID,0,VALID,100,VALID,-0.0849042,VALID,18.3512,VALID,80,VALID,0,
2009-08-05, 02:30:00,VALID,916.597,VALID,0,VALID,100,VALID,-0.118866,VALID,18.3091,VALID,80,VALID,0,
2009-08-05, 02:31:00,VALID,916.584,VALID,0,VALID,100,VALID,-0.101885,VALID,18.2766,VALID,80,VALID,0,
2009-08-05, 02:32:00,VALID,916.585,VALID,0,VALID,100,VALID,-0.0339617,VALID,18.244,VALID,80,VALID,0,
2009-08-05, 02:33:00,VALID,916.583,VALID,0,VALID,100,VALID,-0.0849042,VALID,18.2407,VALID,80,VALID,0,
2009-08-05, 02:34:00,VALID,916.568,VALID,0,VALID,100,VALID,-0.0679233,VALID,18.2697,VALID,80,VALID,0,
2009-08-05, 02:35:00,VALID,916.551,VALID,0,VALID,100,VALID,-0.0679233,VALID,18.3383,VALID,80,VALID,0,
2009-08-05, 02:36:00,VALID,916.541,VALID,0,VALID,100,VALID,-0.0679233,VALID,18.3056,VALID,80,VALID,0,
2009-08-05, 02:37:00,VALID,916.534,VALID,0,VALID,100,VALID,-0.0509425,VALID,18.3023,VALID,80,VALID,0,
2009-08-05, 02:38:00,VALID,916.515,VALID,0,VALID,100,VALID,-0.0679233,VALID,18.3413,VALID,80,VALID,0,
2009-08-05, 02:39:00,VALID,916.511,VALID,0,VALID,100,VALID,-0.0849042,VALID,18.325,VALID,80,VALID,0,
2009-08-05, 02:40:00,VALID,916.487,VALID,0,VALID,100,VALID,-0.0169808,VALID,18.2729,VALID,80,VALID,0,
2009-08-05, 02:41:00,VALID,916.466,VALID,0,VALID,100,VALID,-0.0679233,VALID,18.2085,VALID,80,VALID,0,
2009-08-05, 02:42:00,VALID,916.445,VALID,0,VALID,100,VALID,-0.0679233,VALID,18.1791,VALID,80,VALID,0,
2009-08-05, 02:43:00,VALID,916.425,VALID,0,VALID,100,VALID,-0.0509425,VALID,18.1754,VALID,80,VALID,0,
2009-08-05, 02:44:00,VALID,916.413,VALID,0,VALID,100,VALID,-0.0679233,VALID,18.1467,VALID,80,VALID,0,
2009-08-05, 02:45:00,VALID,916.413,VALID,0,VALID,100,VALID,-0.0679233,VALID,18.0816,VALID,80,VALID,0,
2009-08-05, 02:46:00,VALID,916.392,VALID,0,VALID,100,VALID,-0.0849042,VALID,17.9942,VALID,80,VALID,0,
2009-08-05, 02:47:00,VALID,916.377,VALID,0,VALID,100,VALID,-0.0509425,VALID,17.975,VALID,104,VALID,0,
2009-08-05, 02:48:00,VALID,916.362,VALID,0,VALID,100,VALID,-0.0339617,VALID,17.9977,VALID,123,VALID,0.0279018,
2009-08-05, 02:49:00,VALID,916.361,VALID,0,VALID,100,VALID,-0.0509425,VALID,18.0366,VALID,126,VALID,0.00576637,
2009-08-05, 02:50:00,VALID,916.353,VALID,0,VALID,100,VALID,-0.0849042,VALID,18.127,VALID,128,VALID,0,
2009-08-05, 02:51:00,VALID,916.351,VALID,0,VALID,100,VALID,-0.0509425,VALID,18.2403,VALID,128,VALID,0,
2009-08-05, 02:52:00,VALID,916.331,VALID,0,VALID,100,VALID,-0.0679233,VALID,18.3121,VALID,132,VALID,0,
2009-08-05, 02:53:00,VALID,916.322,VALID,0,VALID,100,VALID,-0.0679233,VALID,18.3285,VALID,140,VALID,0,
2009-08-05, 02:54:00,VALID,916.33,VALID,0,VALID,100,VALID,-0.118866,VALID,18.3642,VALID,149,VALID,0.09375,
2009-08-05, 02:55:00,VALID,916.316,VALID,0,VALID,100,VALID,-0.101885,VALID,18.348,VALID,154,VALID,0.00436047,
2009-08-05, 02:56:00,VALID,916.308,VALID,0,VALID,100,VALID,-0.0849042,VALID,18.3315,VALID,154,VALID,0.00171494,
2009-08-05, 02:57:00,VALID,916.287,VALID,0,VALID,100,VALID,-0.101885,VALID,18.3378,VALID,155,VALID,0,
2009-08-05, 02:58:00,VALID,916.26,VALID,0,VALID,100,VALID,-0.0849042,VALID,18.3739,VALID,149,VALID,0,
2009-08-05, 02:59:00,VALID,916.24,VALID,0,VALID,100,VALID,-0.0849042,VALID,18.3637,VALID,133,VALID,0,
2009-08-05, 03:00:00,VALID,916.227,VALID,0,VALID,100,VALID,-0.0339617,VALID,18.3183,VALID,133,VALID,0,
2009-08-05, 03:01:00,VALID,916.237,VALID,0,VALID,100,VALID,-0.0509425,VALID,18.1467,VALID,133,VALID,0,
2009-08-05, 03:02:00,VALID,916.243,VALID,0,VALID,100,VALID,-0.0679233,VALID,18.0301,VALID,133,VALID,0,
2009-08-05, 03:03:00,VALID,916.265,VALID,0,VALID,100,VALID,-0.0679233,VALID,18.0169,VALID,133,VALID,0,
2009-08-05, 03:04:00,VALID,916.276,VALID,0,VALID,100,VALID,-0.101885,VALID,18.0107,VALID,133,VALID,0,
2009-08-05, 03:05:00,VALID,916.291,VALID,0,VALID,100,VALID,-0.0679233,VALID,17.975,VALID,133,VALID,0,
2009-08-05, 03:06:00,VALID,916.308,VALID,0,VALID,100,VALID,-0.0849042,VALID,17.9486,VALID,133,VALID,0,
2009-08-05, 03:07:00,VALID,916.315,VALID,0,VALID,100,VALID,-0.118866,VALID,17.9523,VALID,133,VALID,0,
2009-08-05, 03:08:00,VALID,916.311,VALID,0,VALID,100,VALID,-0.101885,VALID,17.975,VALID,133,VALID,0,
2009-08-05, 03:09:00,VALID,916.282,VALID,0,VALID,100,VALID,-0.0509425,VALID,18.0362,VALID,133,VALID,0,
2009-08-05, 03:10:00,VALID,916.277,VALID,0,VALID,100,VALID,-0.0849042,VALID,17.975,VALID,133,VALID,0,
2009-08-05, 03:11:00,VALID,916.261,VALID,0,VALID,100,VALID,-0.118866,VALID,17.9101,VALID,133,VALID,0,
2009-08-05, 03:12:00,VALID,916.251,VALID,0,VALID,100,VALID,-0.0169808,VALID,17.9479,VALID,133,VALID,0,
2009-08-05, 03:13:00,VALID,916.275,VALID,0,VALID,100,VALID,0.0169808,VALID,18.0095,VALID,133,VALID,0,
2009-08-05, 03:14:00,VALID,916.282,VALID,0,VALID,100,VALID,0,VALID,17.9996,VALID,133,VALID,0,
2009-08-05, 03:15:00,VALID,916.318,VALID,0,VALID,100,VALID,-0.0169808,VALID,17.9834,VALID,133,VALID,0,
2009-08-05, 03:16:00,VALID,916.338,VALID,0,VALID,100,VALID,0,VALID,18.0093,VALID,133,VALID,0,
2009-08-05, 03:17:00,VALID,916.335,VALID,0,VALID,100,VALID,0,VALID,18.0353,VALID,133,VALID,0,
2009-08-05, 03:18:00,VALID,916.331,VALID,0,VALID,100,VALID,0.0679233,VALID,18.0739,VALID,133,VALID,0,
2009-08-05, 03:19:00,VALID,916.332,VALID,0,VALID,100,VALID,0.0169808,VALID,18.1001,VALID,133,VALID,0,
2009-08-05, 03:20:00,VALID,916.327,VALID,0,VALID,100,VALID,0.0509425,VALID,17.96,VALID,132,VALID,0,
2009-08-05, 03:21:00,VALID,916.341,VALID,0,VALID,100,VALID,0.0509425,VALID,17.9155,VALID,123,VALID,0,
2009-08-05, 03:22:00,VALID,916.361,VALID,0,VALID,100,VALID,0.0849042,VALID,17.8729,VALID,111,VALID,0,
2009-08-05, 03:23:00,VALID,916.359,VALID,0,VALID,100,VALID,0.0509425,VALID,17.912,VALID,109,VALID,0,
2009-08-05, 03:24:00,VALID,916.354,VALID,0,VALID,100,VALID,0.0339617,VALID,17.9408,VALID,109,VALID,0,
2009-08-05, 03:25:00,VALID,916.356,VALID,0,VALID,100,VALID,0.0509425,VALID,17.9468,VALID,109,VALID,0,
2009-08-05, 03:26:00,VALID,916.353,VALID,0,VALID,100,VALID,0.0169808,VALID,17.9509,VALID,109,VALID,0,
2009-08-05, 03:27:00,VALID,916.353,VALID,0,VALID,100,VALID,-0.0169808,VALID,17.9445,VALID,109,VALID,0,
2009-08-05, 03:28:00,VALID,916.344,VALID,0,VALID,100,VALID,-0.0509425,VALID,17.9808,VALID,109,VALID,0,
2009-08-05, 03:29:00,VALID,916.333,VALID,0,VALID,100,VALID,-0.0169808,VALID,17.9843,VALID,109,VALID,0,
2009-08-05, 03:30:00,VALID,916.34,VALID,0,VALID,100,VALID,0,VALID,17.9903,VALID,109,VALID,0,
2009-08-05, 03:31:00,VALID,916.344,VALID,0,VALID,100,VALID,0,VALID,18.0647,VALID,109,VALID,0,
2009-08-05, 03:32:00,VALID,916.368,VALID,0,VALID,100,VALID,-0.0169808,VALID,18.1073,VALID,109,VALID,0,
2009-08-05, 03:33:00,VALID,916.379,VALID,0,VALID,100,VALID,-0.0509425,VALID,18.0976,VALID,109,VALID,0,
2009-08-05, 03:34:00,VALID,916.394,VALID,0,VALID,100,VALID,-0.0509425,VALID,18.0781,VALID,109,VALID,0,
2009-08-05, 03:35:00,VALID,916.39,VALID,0,VALID,100,VALID,-0.0339617,VALID,18.1235,VALID,109,VALID,0,
2009-08-05, 03:36:00,VALID,916.394,VALID,0,VALID,100,VALID,-0.0509425,VALID,18.1946,VALID,109,VALID,0,
2009-08-05, 03:37:00,VALID,916.397,VALID,0,VALID,100,VALID,-0.0169808,VALID,18.2657,VALID,109,VALID,0,
2009-08-05, 03:38:00,VALID,916.385,VALID,0,VALID,100,VALID,-0.0509425,VALID,18.2854,VALID,109,VALID,0,
2009-08-05, 03:39:00,VALID,916.364,VALID,0,VALID,100,VALID,-0.0509425,VALID,18.2986,VALID,109,VALID,0,
2009-08-05, 03:40:00,VALID,916.357,VALID,0,VALID,100,VALID,-0.0339617,VALID,18.2919,VALID,109,VALID,0,
2009-08-05, 03:41:00,VALID,916.353,VALID,0,VALID,100,VALID,-0.0509425,VALID,18.2926,VALID,109,VALID,0,
2009-08-05, 03:42:00,VALID,916.342,VALID,0,VALID,100,VALID,0,VALID,18.2725,VALID,109,VALID,0,
2009-08-05, 03:43:00,VALID,916.348,VALID,0,VALID,100,VALID,-0.0169808,VALID,18.2556,VALID,109,VALID,0,
2009-08-05, 03:44:00,VALID,916.352,VALID,0,VALID,100,VALID,0,VALID,18.2324,VALID,109,VALID,0,
2009-08-05, 03:45:00,VALID,916.35,VALID,0,VALID,100,VALID,-0.0169808,VALID,18.262,VALID,109,VALID,0,
2009-08-05, 03:46:00,VALID,916.377,VALID,0,VALID,100,VALID,0,VALID,18.2945,VALID,109,VALID,0,
2009-08-05, 03:47:00,VALID,916.391,VALID,0,VALID,100,VALID,0.0169808,VALID,18.3396,VALID,109,VALID,0,
2009-08-05, 03:48:00,VALID,916.383,VALID,0,VALID,100,VALID,0,VALID,18.3758,VALID,109,VALID,0,
2009-08-05, 03:49:00,VALID,916.381,VALID,0,VALID,100,VALID,0.0169808,VALID,18.3788,VALID,109,VALID,0,
2009-08-05, 03:50:00,VALID,916.357,VALID,0,VALID,100,VALID,0,VALID,18.392,VALID,109,VALID,0,
2009-08-05, 03:51:00,VALID,916.352,VALID,0,VALID,100,VALID,0,VALID,18.4075,VALID,109,VALID,0,
2009-08-05, 03:52:00,VALID,916.36,VALID,0,VALID,100,VALID,0.0169808,VALID,18.4399,VALID,109,VALID,0,